datetime,flow
1927-01-01,715.0
1927-01-02,697.0
1927-01-03,715.0
1927-01-04,796.0
1927-01-05,825.0
1927-01-06,865.0
1927-01-07,835.0
1927-01-08,796.0
1927-01-09,778.0
1927-01-10,815.0
1927-01-11,815.0
1927-01-12,835.0
1927-01-13,751.0
1927-01-14,715.0
1927-01-15,625.0
1927-01-16,625.0
1927-01-17,625.0
1927-01-18,625.0
1927-01-19,609.0
1927-01-20,634.0
1927-01-21,643.0
1927-01-22,661.0
1927-01-23,643.0
1927-01-24,634.0
1927-01-25,643.0
1927-01-26,625.0
1927-01-27,643.0
1927-01-28,652.0
1927-01-29,643.0
1927-01-30,679.0
1927-01-31,688.0
1927-02-01,706.0
1927-02-02,760.0
1927-02-03,688.0
1927-02-04,697.0
1927-02-05,751.0
1927-02-06,751.0
1927-02-07,751.0
1927-02-08,787.0
1927-02-09,835.0
1927-02-10,769.0
1927-02-11,835.0
1927-02-12,875.0
1927-02-13,895.0
1927-02-14,895.0
1927-02-15,905.0
1927-02-16,955.0
1927-02-17,908.0
1927-02-18,862.0
1927-02-19,815.0
1927-02-20,845.0
1927-02-21,751.0
1927-02-22,905.0
1927-02-23,955.0
1927-02-24,965.0
1927-02-25,975.0
1927-02-26,1040.0
1927-02-27,1160.0
1927-02-28,1140.0
1927-03-01,1080.0
1927-03-02,985.0
1927-03-03,975.0
1927-03-04,985.0
1927-03-05,1060.0
1927-03-06,1080.0
1927-03-07,1050.0
1927-03-08,1040.0
1927-03-09,1040.0
1927-03-10,1150.0
1927-03-11,1300.0
1927-03-12,1310.0
1927-03-13,1330.0
1927-03-14,1190.0
1927-03-15,1200.0
1927-03-16,1220.0
1927-03-17,1210.0
1927-03-18,1160.0
1927-03-19,1030.0
1927-03-20,1040.0
1927-03-21,1150.0
1927-03-22,1160.0
1927-03-23,1100.0
1927-03-24,1060.0
1927-03-25,1040.0
1927-03-26,1140.0
1927-03-27,1400.0
1927-03-28,1490.0
1927-03-29,1510.0
1927-03-30,2010.0
1927-03-31,2130.0
1927-04-01,3060.0
1927-04-02,1970.0
1927-04-03,2340.0
1927-04-04,3420.0
1927-04-05,4750.0
1927-04-06,4530.0
1927-04-07,4120.0
1927-04-08,4120.0
1927-04-09,3820.0
1927-04-10,3140.0
1927-04-11,3140.0
1927-04-12,3090.0
1927-04-13,2650.0
1927-04-14,2430.0
1927-04-15,2120.0
1927-04-16,1820.0
1927-04-17,1740.0
1927-04-18,1710.0
1927-04-19,1760.0
1927-04-20,1760.0
1927-04-21,1900.0
1927-04-22,1990.0
1927-04-23,2480.0
1927-04-24,3200.0
1927-04-25,4430.0
1927-04-26,5070.0
1927-04-27,5730.0
1927-04-28,5560.0
1927-04-29,5380.0
1927-04-30,6450.0
1927-05-01,7280.0
1927-05-02,8030.0
1927-05-03,8610.0
1927-05-04,9380.0
1927-05-05,9940.0
1927-05-06,10400.0
1927-05-07,9680.0
1927-05-08,9540.0
1927-05-09,8290.0
1927-05-10,6820.0
1927-05-11,5620.0
1927-05-12,4980.0
1927-05-13,4580.0
1927-05-14,5130.0
1927-05-15,6110.0
1927-05-16,7260.0
1927-05-17,8340.0
1927-05-18,9260.0
1927-05-19,9660.0
1927-05-20,9880.0
1927-05-21,9410.0
1927-05-22,9180.0
1927-05-23,8340.0
1927-05-24,7330.0
1927-05-25,6310.0
1927-05-26,6060.0
1927-05-27,5800.0
1927-05-28,5710.0
1927-05-29,5300.0
1927-05-30,5020.0
1927-05-31,4580.0
1927-06-01,4340.0
1927-06-02,3750.0
1927-06-03,3490.0
1927-06-04,3330.0
1927-06-05,3290.0
1927-06-06,3160.0
1927-06-07,3070.0
1927-06-08,3020.0
1927-06-09,3120.0
1927-06-10,3160.0
1927-06-11,4380.0
1927-06-12,4540.0
1927-06-13,4690.0
1927-06-14,4840.0
1927-06-15,5000.0
1927-06-16,5160.0
1927-06-17,5310.0
1927-06-18,5470.0
1927-06-19,5420.0
1927-06-20,5300.0
1927-06-21,5000.0
1927-06-22,4940.0
1927-06-23,4620.0
1927-06-24,4480.0
1927-06-25,4340.0
1927-06-26,4300.0
1927-06-27,3600.0
1927-06-28,3380.0
1927-06-29,3470.0
1927-06-30,4460.0
1927-07-01,6800.0
1927-07-02,8070.0
1927-07-03,9760.0
1927-07-04,11500.0
1927-07-05,8940.0
1927-07-06,7110.0
1927-07-07,5730.0
1927-07-08,5070.0
1927-07-09,4750.0
1927-07-10,4910.0
1927-07-11,4000.0
1927-07-12,3000.0
1927-07-13,2200.0
1927-07-14,1900.0
1927-07-15,1880.0
1927-07-16,1840.0
1927-07-17,1860.0
1927-07-18,1540.0
1927-07-19,1230.0
1927-07-20,1020.0
1927-07-21,915.0
1927-07-22,915.0
1927-07-23,1060.0
1927-07-24,814.0
1927-07-25,2140.0
1927-07-26,1200.0
1927-07-27,1200.0
1927-07-28,1600.0
1927-07-29,1200.0
1927-07-30,1100.0
1927-07-31,900.0
1927-08-01,700.0
1927-08-02,650.0
1927-08-03,650.0
1927-08-04,650.0
1927-08-05,850.0
1927-08-06,889.0
1927-08-07,814.0
1927-08-08,778.0
1927-08-09,1170.0
1927-08-10,1580.0
1927-08-11,1330.0
1927-08-12,1010.0
1927-08-13,814.0
1927-08-14,686.0
1927-08-15,708.0
1927-08-16,778.0
1927-08-17,675.0
1927-08-18,675.0
1927-08-19,778.0
1927-08-20,850.0
1927-08-21,1120.0
1927-08-22,902.0
1927-08-23,2080.0
1927-08-24,1400.0
1927-08-25,1100.0
1927-08-26,1200.0
1927-08-27,1050.0
1927-08-28,967.0
1927-08-29,995.0
1927-08-30,955.0
1927-08-31,995.0
1927-09-01,1140.0
1927-09-02,1240.0
1927-09-03,1320.0
1927-09-04,1500.0
1927-09-05,1620.0
1927-09-06,1710.0
1927-09-07,1860.0
1927-09-08,2460.0
1927-09-09,2550.0
1927-09-10,2990.0
1927-09-11,3010.0
1927-09-12,3360.0
1927-09-13,5710.0
1927-09-14,6110.0
1927-09-15,5320.0
1927-09-16,6730.0
1927-09-17,6150.0
1927-09-18,6200.0
1927-09-19,4770.0
1927-09-20,4160.0
1927-09-21,3640.0
1927-09-22,3270.0
1927-09-23,3070.0
1927-09-24,3060.0
1927-09-25,3160.0
1927-09-26,3120.0
1927-09-27,3530.0
1927-09-28,3440.0
1927-09-29,3360.0
1927-09-30,3130.0
1927-10-01,2900.0
1927-10-02,3220.0
1927-10-03,3270.0
1927-10-04,3230.0
1927-10-05,3180.0
1927-10-06,2940.0
1927-10-07,2940.0
1927-10-08,2900.0
1927-10-09,2890.0
1927-10-10,2700.0
1927-10-11,2570.0
1927-10-12,2410.0
1927-10-13,2200.0
1927-10-14,2250.0
1927-10-15,2190.0
1927-10-16,2080.0
1927-10-17,1900.0
1927-10-18,1960.0
1927-10-19,1860.0
1927-10-20,1760.0
1927-10-21,1700.0
1927-10-22,1660.0
1927-10-23,1610.0
1927-10-24,1560.0
1927-10-25,1540.0
1927-10-26,1520.0
1927-10-27,1510.0
1927-10-28,1500.0
1927-10-29,1540.0
1927-10-30,1800.0
1927-10-31,1630.0
1927-11-01,1720.0
1927-11-02,1660.0
1927-11-03,1660.0
1927-11-04,1490.0
1927-11-05,1320.0
1927-11-06,1320.0
1927-11-07,1320.0
1927-11-08,1360.0
1927-11-09,1480.0
1927-11-10,1540.0
1927-11-11,1540.0
1927-11-12,1540.0
1927-11-13,1520.0
1927-11-14,1540.0
1927-11-15,1490.0
1927-11-16,1460.0
1927-11-17,1450.0
1927-11-18,1460.0
1927-11-19,1340.0
1927-11-20,1270.0
1927-11-21,1310.0
1927-11-22,1330.0
1927-11-23,1310.0
1927-11-24,1210.0
1927-11-25,1200.0
1927-11-26,1180.0
1927-11-27,1130.0
1927-11-28,1180.0
1927-11-29,1250.0
1927-11-30,1150.0
1927-12-01,1150.0
1927-12-02,1100.0
1927-12-03,1060.0
1927-12-04,1040.0
1927-12-05,1200.0
1927-12-06,1050.0
1927-12-07,961.0
1927-12-08,873.0
1927-12-09,785.0
1927-12-10,697.0
1927-12-11,724.0
1927-12-12,965.0
1927-12-13,1180.0
1927-12-14,1240.0
1927-12-15,1190.0
1927-12-16,1050.0
1927-12-17,915.0
1927-12-18,922.0
1927-12-19,929.0
1927-12-20,936.0
1927-12-21,944.0
1927-12-22,951.0
1927-12-23,958.0
1927-12-24,965.0
1927-12-25,995.0
1927-12-26,1020.0
1927-12-27,1060.0
1927-12-28,1080.0
1927-12-29,1120.0
1927-12-30,1140.0
1927-12-31,1180.0
1928-01-01,837.0
1928-01-02,837.0
1928-01-03,837.0
1928-01-04,837.0
1928-01-05,837.0
1928-01-06,837.0
1928-01-07,980.0
1928-01-08,969.0
1928-01-09,969.0
1928-01-10,969.0
1928-01-11,969.0
1928-01-12,981.0
1928-01-13,981.0
1928-01-14,981.0
1928-01-15,981.0
1928-01-16,1020.0
1928-01-17,1030.0
1928-01-18,980.0
1928-01-19,890.0
1928-01-20,780.0
1928-01-21,720.0
1928-01-22,710.0
1928-01-23,802.0
1928-01-24,791.0
1928-01-25,730.0
1928-01-26,740.0
1928-01-27,740.0
1928-01-28,690.0
1928-01-29,790.0
1928-01-30,880.0
1928-01-31,880.0
1928-02-01,890.0
1928-02-02,901.0
1928-02-03,957.0
1928-02-04,969.0
1928-02-05,981.0
1928-02-06,1030.0
1928-02-07,1110.0
1928-02-08,1120.0
1928-02-09,1070.0
1928-02-10,1060.0
1928-02-11,969.0
1928-02-12,901.0
1928-02-13,912.0
1928-02-14,993.0
1928-02-15,912.0
1928-02-16,857.0
1928-02-17,890.0
1928-02-18,890.0
1928-02-19,846.0
1928-02-20,835.0
1928-02-21,879.0
1928-02-22,912.0
1928-02-23,912.0
1928-02-24,824.0
1928-02-25,880.0
1928-02-26,890.0
1928-02-27,845.0
1928-02-28,890.0
1928-02-29,923.0
1928-03-01,1020.0
1928-03-02,1100.0
1928-03-03,1140.0
1928-03-04,1260.0
1928-03-05,1360.0
1928-03-06,1590.0
1928-03-07,1500.0
1928-03-08,1440.0
1928-03-09,1520.0
1928-03-10,1590.0
1928-03-11,1670.0
1928-03-12,1480.0
1928-03-13,1300.0
1928-03-14,1460.0
1928-03-15,1580.0
1928-03-16,1350.0
1928-03-17,1380.0
1928-03-18,1260.0
1928-03-19,1280.0
1928-03-20,1340.0
1928-03-21,1260.0
1928-03-22,1360.0
1928-03-23,1640.0
1928-03-24,1670.0
1928-03-25,1950.0
1928-03-26,1970.0
1928-03-27,2030.0
1928-03-28,2090.0
1928-03-29,2230.0
1928-03-30,2250.0
1928-03-31,2050.0
1928-04-01,2010.0
1928-04-02,1760.0
1928-04-03,1870.0
1928-04-04,1930.0
1928-04-05,1950.0
1928-04-06,1780.0
1928-04-07,1620.0
1928-04-08,1540.0
1928-04-09,1460.0
1928-04-10,1380.0
1928-04-11,1300.0
1928-04-12,1220.0
1928-04-13,1140.0
1928-04-14,1080.0
1928-04-15,1040.0
1928-04-16,1140.0
1928-04-17,1210.0
1928-04-18,1380.0
1928-04-19,1360.0
1928-04-20,1440.0
1928-04-21,1580.0
1928-04-22,1510.0
1928-04-23,1480.0
1928-04-24,1590.0
1928-04-25,1590.0
1928-04-26,1740.0
1928-04-27,1760.0
1928-04-28,2350.0
1928-04-29,3030.0
1928-04-30,3560.0
1928-05-01,5350.0
1928-05-02,5980.0
1928-05-03,7510.0
1928-05-04,7360.0
1928-05-05,5530.0
1928-05-06,5260.0
1928-05-07,5950.0
1928-05-08,6190.0
1928-05-09,6400.0
1928-05-10,6820.0
1928-05-11,6880.0
1928-05-12,6820.0
1928-05-13,6100.0
1928-05-14,5890.0
1928-05-15,5260.0
1928-05-16,4820.0
1928-05-17,4700.0
1928-05-18,4590.0
1928-05-19,4510.0
1928-05-20,4330.0
1928-05-21,4570.0
1928-05-22,4310.0
1928-05-23,4310.0
1928-05-24,4290.0
1928-05-25,4130.0
1928-05-26,5140.0
1928-05-27,5550.0
1928-05-28,5940.0
1928-05-29,6130.0
1928-05-30,6310.0
1928-05-31,6430.0
1928-06-01,6770.0
1928-06-02,6820.0
1928-06-03,6910.0
1928-06-04,6770.0
1928-06-05,6070.0
1928-06-06,5140.0
1928-06-07,4230.0
1928-06-08,3640.0
1928-06-09,3100.0
1928-06-10,2940.0
1928-06-11,2790.0
1928-06-12,2680.0
1928-06-13,2250.0
1928-06-14,1990.0
1928-06-15,1670.0
1928-06-16,1360.0
1928-06-17,1170.0
1928-06-18,1070.0
1928-06-19,969.0
1928-06-20,969.0
1928-06-21,879.0
1928-06-22,791.0
1928-06-23,720.0
1928-06-24,651.0
1928-06-25,651.0
1928-06-26,578.0
1928-06-27,486.0
1928-06-28,410.0
1928-06-29,388.0
1928-06-30,320.0
1928-07-01,283.0
1928-07-02,253.0
1928-07-03,220.0
1928-07-04,220.0
1928-07-05,195.0
1928-07-06,153.0
1928-07-07,144.0
1928-07-08,158.0
1928-07-09,162.0
1928-07-10,167.0
1928-07-11,144.0
1928-07-12,131.0
1928-07-13,131.0
1928-07-14,131.0
1928-07-15,144.0
1928-07-16,140.0
1928-07-17,136.0
1928-07-18,205.0
1928-07-19,236.0
1928-07-20,210.0
1928-07-21,277.0
1928-07-22,388.0
1928-07-23,455.0
1928-07-24,641.0
1928-07-25,518.0
1928-07-26,510.0
1928-07-27,432.0
1928-07-28,494.0
1928-07-29,710.0
1928-07-30,760.0
1928-07-31,846.0
1928-08-01,600.0
1928-08-02,500.0
1928-08-03,1000.0
1928-08-04,5000.0
1928-08-05,800.0
1928-08-06,500.0
1928-08-07,350.0
1928-08-08,300.0
1928-08-09,300.0
1928-08-10,350.0
1928-08-11,350.0
1928-08-12,400.0
1928-08-13,600.0
1928-08-14,700.0
1928-08-15,700.0
1928-08-16,700.0
1928-08-17,730.0
1928-08-18,518.0
1928-08-19,381.0
1928-08-20,320.0
1928-08-21,283.0
1928-08-22,400.0
1928-08-23,600.0
1928-08-24,700.0
1928-08-25,600.0
1928-08-26,700.0
1928-08-27,620.0
1928-08-28,700.0
1928-08-29,700.0
1928-08-30,700.0
1928-08-31,700.0
1928-09-01,740.0
1928-09-02,560.0
1928-09-03,463.0
1928-09-04,381.0
1928-09-05,307.0
1928-09-06,440.0
1928-09-07,289.0
1928-09-08,307.0
1928-09-09,320.0
1928-09-10,289.0
1928-09-11,200.0
1928-09-12,167.0
1928-09-13,190.0
1928-09-14,158.0
1928-09-15,162.0
1928-09-16,185.0
1928-09-17,181.0
1928-09-18,200.0
1928-09-19,220.0
1928-09-20,205.0
1928-09-21,195.0
1928-09-22,200.0
1928-09-23,205.0
1928-09-24,205.0
1928-09-25,225.0
1928-09-26,220.0
1928-09-27,220.0
1928-09-28,231.0
1928-09-29,215.0
1928-09-30,195.0
1928-10-01,190.0
1928-10-02,253.0
1928-10-03,231.0
1928-10-04,231.0
1928-10-05,242.0
1928-10-06,247.0
1928-10-07,242.0
1928-10-08,242.0
1928-10-09,271.0
1928-10-10,265.0
1928-10-11,313.0
1928-10-12,339.0
1928-10-13,353.0
1928-10-14,367.0
1928-10-15,425.0
1928-10-16,381.0
1928-10-17,417.0
1928-10-18,425.0
1928-10-19,440.0
1928-10-20,388.0
1928-10-21,417.0
1928-10-22,425.0
1928-10-23,432.0
1928-10-24,410.0
1928-10-25,395.0
1928-10-26,403.0
1928-10-27,388.0
1928-10-28,410.0
1928-10-29,403.0
1928-10-30,395.0
1928-10-31,417.0
1928-11-01,440.0
1928-11-02,470.0
1928-11-03,455.0
1928-11-04,463.0
1928-11-05,455.0
1928-11-06,478.0
1928-11-07,486.0
1928-11-08,478.0
1928-11-09,455.0
1928-11-10,447.0
1928-11-11,455.0
1928-11-12,478.0
1928-11-13,486.0
1928-11-14,526.0
1928-11-15,569.0
1928-11-16,651.0
1928-11-17,680.0
1928-11-18,690.0
1928-11-19,700.0
1928-11-20,670.0
1928-11-21,670.0
1928-11-22,670.0
1928-11-23,569.0
1928-11-24,632.0
1928-11-25,740.0
1928-11-26,791.0
1928-11-27,824.0
1928-11-28,846.0
1928-11-29,824.0
1928-11-30,700.0
1928-12-01,569.0
1928-12-02,515.0
1928-12-03,463.0
1928-12-04,543.0
1928-12-05,578.0
1928-12-06,605.0
1928-12-07,602.0
1928-12-08,599.0
1928-12-09,596.0
1928-12-10,623.0
1928-12-11,623.0
1928-12-12,623.0
1928-12-13,690.0
1928-12-14,651.0
1928-12-15,596.0
1928-12-16,596.0
1928-12-17,569.0
1928-12-18,494.0
1928-12-19,486.0
1928-12-20,478.0
1928-12-21,510.0
1928-12-22,506.0
1928-12-23,502.0
1928-12-24,502.0
1928-12-25,502.0
1928-12-26,510.0
1928-12-27,578.0
1928-12-28,570.0
1928-12-29,570.0
1928-12-30,570.0
1928-12-31,570.0
1929-01-01,
1929-01-02,
1929-01-03,
1929-01-04,
1929-01-05,
1929-01-06,
1929-01-07,
1929-01-08,
1929-01-09,
1929-01-10,
1929-01-11,
1929-01-12,
1929-01-13,
1929-01-14,
1929-01-15,
1929-01-16,
1929-01-17,
1929-01-18,
1929-01-19,
1929-01-20,
1929-01-21,
1929-01-22,
1929-01-23,
1929-01-24,
1929-01-25,
1929-01-26,
1929-01-27,
1929-01-28,
1929-01-29,
1929-01-30,
1929-01-31,
1929-02-01,
1929-02-02,
1929-02-03,
1929-02-04,
1929-02-05,
1929-02-06,
1929-02-07,
1929-02-08,
1929-02-09,
1929-02-10,
1929-02-11,
1929-02-12,
1929-02-13,
1929-02-14,
1929-02-15,
1929-02-16,
1929-02-17,
1929-02-18,
1929-02-19,
1929-02-20,
1929-02-21,
1929-02-22,
1929-02-23,
1929-02-24,
1929-02-25,
1929-02-26,
1929-02-27,
1929-02-28,
1929-03-01,660.0
1929-03-02,672.0
1929-03-03,637.0
1929-03-04,594.0
1929-03-05,574.0
1929-03-06,637.0
1929-03-07,755.0
1929-03-08,924.0
1929-03-09,1180.0
1929-03-10,1150.0
1929-03-11,1200.0
1929-03-12,1300.0
1929-03-13,967.0
1929-03-14,755.0
1929-03-15,821.0
1929-03-16,808.0
1929-03-17,808.0
1929-03-18,821.0
1929-03-19,876.0
1929-03-20,861.0
1929-03-21,782.0
1929-03-22,906.0
1929-03-23,1080.0
1929-03-24,769.0
1929-03-25,808.0
1929-03-26,649.0
1929-03-27,795.0
1929-03-28,1120.0
1929-03-29,1200.0
1929-03-30,1640.0
1929-03-31,1530.0
1929-04-01,
1929-04-02,
1929-04-03,
1929-04-04,
1929-04-05,
1929-04-06,
1929-04-07,
1929-04-08,
1929-04-09,
1929-04-10,
1929-04-11,
1929-04-12,
1929-04-13,
1929-04-14,
1929-04-15,
1929-04-16,
1929-04-17,
1929-04-18,
1929-04-19,
1929-04-20,
1929-04-21,
1929-04-22,
1929-04-23,
1929-04-24,
1929-04-25,
1929-04-26,
1929-04-27,
1929-04-28,
1929-04-29,
1929-04-30,
1929-05-01,2230.0
1929-05-02,2260.0
1929-05-03,1800.0
1929-05-04,2180.0
1929-05-05,2750.0
1929-05-06,3620.0
1929-05-07,4180.0
1929-05-08,4780.0
1929-05-09,5560.0
1929-05-10,5940.0
1929-05-11,6550.0
1929-05-12,6630.0
1929-05-13,4600.0
1929-05-14,3930.0
1929-05-15,3730.0
1929-05-16,4210.0
1929-05-17,5450.0
1929-05-18,6360.0
1929-05-19,6390.0
1929-05-20,5450.0
1929-05-21,7610.0
1929-05-22,10500.0
1929-05-23,8860.0
1929-05-24,8570.0
1929-05-25,8290.0
1929-05-26,7570.0
1929-05-27,7450.0
1929-05-28,7250.0
1929-05-29,6050.0
1929-05-30,5710.0
1929-05-31,5200.0
1929-06-01,
1929-06-02,
1929-06-03,
1929-06-04,
1929-06-05,
1929-06-06,
1929-06-07,
1929-06-08,
1929-06-09,
1929-06-10,
1929-06-11,
1929-06-12,
1929-06-13,
1929-06-14,
1929-06-15,
1929-06-16,
1929-06-17,
1929-06-18,
1929-06-19,
1929-06-20,
1929-06-21,
1929-06-22,
1929-06-23,
1929-06-24,
1929-06-25,
1929-06-26,
1929-06-27,
1929-06-28,
1929-06-29,
1929-06-30,
1929-07-01,1300.0
1929-07-02,1130.0
1929-07-03,808.0
1929-07-04,795.0
1929-07-05,795.0
1929-07-06,695.0
1929-07-07,554.0
1929-07-08,544.0
1929-07-09,564.0
1929-07-10,769.0
1929-07-11,795.0
1929-07-12,835.0
1929-07-13,891.0
1929-07-14,982.0
1929-07-15,755.0
1929-07-16,614.0
1929-07-17,574.0
1929-07-18,649.0
1929-07-19,835.0
1929-07-20,1590.0
1929-07-21,1770.0
1929-07-22,1480.0
1929-07-23,1800.0
1929-07-24,2040.0
1929-07-25,1380.0
1929-07-26,1300.0
1929-07-27,1180.0
1929-07-28,1220.0
1929-07-29,1460.0
1929-07-30,1120.0
1929-07-31,1170.0
1929-08-01,921.0
1929-08-02,1060.0
1929-08-03,1150.0
1929-08-04,808.0
1929-08-05,1440.0
1929-08-06,1570.0
1929-08-07,2520.0
1929-08-08,4740.0
1929-08-09,2850.0
1929-08-10,3330.0
1929-08-11,5790.0
1929-08-12,9560.0
1929-08-13,4560.0
1929-08-14,4910.0
1929-08-15,4910.0
1929-08-16,4250.0
1929-08-17,3860.0
1929-08-18,3200.0
1929-08-19,2940.0
1929-08-20,2630.0
1929-08-21,1970.0
1929-08-22,1570.0
1929-08-23,1200.0
1929-08-24,1300.0
1929-08-25,1440.0
1929-08-26,1590.0
1929-08-27,1280.0
1929-08-28,1130.0
1929-08-29,1320.0
1929-08-30,3100.0
1929-08-31,2230.0
1929-09-01,
1929-09-02,
1929-09-03,
1929-09-04,
1929-09-05,
1929-09-06,
1929-09-07,
1929-09-08,
1929-09-09,
1929-09-10,
1929-09-11,
1929-09-12,
1929-09-13,
1929-09-14,
1929-09-15,
1929-09-16,
1929-09-17,
1929-09-18,
1929-09-19,
1929-09-20,
1929-09-21,
1929-09-22,
1929-09-23,
1929-09-24,
1929-09-25,
1929-09-26,
1929-09-27,
1929-09-28,
1929-09-29,
1929-09-30,
1929-10-01,
1929-10-02,
1929-10-03,
1929-10-04,
1929-10-05,
1929-10-06,
1929-10-07,
1929-10-08,
1929-10-09,
1929-10-10,
1929-10-11,
1929-10-12,
1929-10-13,
1929-10-14,
1929-10-15,
1929-10-16,
1929-10-17,
1929-10-18,
1929-10-19,
1929-10-20,
1929-10-21,
1929-10-22,
1929-10-23,
1929-10-24,
1929-10-25,
1929-10-26,
1929-10-27,
1929-10-28,
1929-10-29,
1929-10-30,
1929-10-31,
1929-11-01,1300.0
1929-11-02,1240.0
1929-11-03,1200.0
1929-11-04,1400.0
1929-11-05,1640.0
1929-11-06,1700.0
1929-11-07,1940.0
1929-11-08,2040.0
1929-11-09,2100.0
1929-11-10,1920.0
1929-11-11,1840.0
1929-11-12,1610.0
1929-11-13,1300.0
1929-11-14,1050.0
1929-11-15,906.0
1929-11-16,921.0
1929-11-17,1050.0
1929-11-18,1200.0
1929-11-19,1500.0
1929-11-20,1640.0
1929-11-21,1700.0
1929-11-22,1480.0
1929-11-23,1380.0
1929-11-24,1300.0
1929-11-25,1150.0
1929-11-26,982.0
1929-11-27,1100.0
1929-11-28,1220.0
1929-11-29,1380.0
1929-11-30,1530.0
1929-12-01,1440.0
1929-12-02,1550.0
1929-12-03,1700.0
1929-12-04,1550.0
1929-12-05,1300.0
1929-12-06,1240.0
1929-12-07,1300.0
1929-12-08,1280.0
1929-12-09,1220.0
1929-12-10,1150.0
1929-12-11,1170.0
1929-12-12,1170.0
1929-12-13,1100.0
1929-12-14,1060.0
1929-12-15,1120.0
1929-12-16,1130.0
1929-12-17,1060.0
1929-12-18,1100.0
1929-12-19,967.0
1929-12-20,906.0
1929-12-21,755.0
1929-12-22,594.0
1929-12-23,626.0
1929-12-24,554.0
1929-12-25,672.0
1929-12-26,729.0
1929-12-27,821.0
1929-12-28,782.0
1929-12-29,695.0
1929-12-30,782.0
1929-12-31,848.0
1930-01-01,862.0
1930-01-02,871.0
1930-01-03,853.0
1930-01-04,835.0
1930-01-05,774.0
1930-01-06,808.0
1930-01-07,808.0
1930-01-08,790.0
1930-01-09,766.0
1930-01-10,710.0
1930-01-11,742.0
1930-01-12,844.0
1930-01-13,826.0
1930-01-14,890.0
1930-01-15,862.0
1930-01-16,862.0
1930-01-17,910.0
1930-01-18,920.0
1930-01-19,930.0
1930-01-20,980.0
1930-01-21,1060.0
1930-01-22,920.0
1930-01-23,920.0
1930-01-24,940.0
1930-01-25,970.0
1930-01-26,980.0
1930-01-27,940.0
1930-01-28,900.0
1930-01-29,860.0
1930-01-30,830.0
1930-01-31,790.0
1930-02-01,750.0
1930-02-02,799.0
1930-02-03,790.0
1930-02-04,817.0
1930-02-05,808.0
1930-02-06,817.0
1930-02-07,826.0
1930-02-08,817.0
1930-02-09,880.0
1930-02-10,890.0
1930-02-11,950.0
1930-02-12,960.0
1930-02-13,990.0
1930-02-14,990.0
1930-02-15,1040.0
1930-02-16,1150.0
1930-02-17,1150.0
1930-02-18,1210.0
1930-02-19,1260.0
1930-02-20,1400.0
1930-02-21,1400.0
1930-02-22,1400.0
1930-02-23,1400.0
1930-02-24,1400.0
1930-02-25,1400.0
1930-02-26,1400.0
1930-02-27,1400.0
1930-02-28,900.0
1930-03-01,782.0
1930-03-02,678.0
1930-03-03,694.0
1930-03-04,766.0
1930-03-05,799.0
1930-03-06,871.0
1930-03-07,890.0
1930-03-08,910.0
1930-03-09,900.0
1930-03-10,940.0
1930-03-11,920.0
1930-03-12,960.0
1930-03-13,990.0
1930-03-14,1070.0
1930-03-15,1050.0
1930-03-16,1120.0
1930-03-17,1350.0
1930-03-18,1480.0
1930-03-19,1260.0
1930-03-20,1190.0
1930-03-21,1170.0
1930-03-22,1180.0
1930-03-23,1200.0
1930-03-24,1300.0
1930-03-25,1400.0
1930-03-26,1340.0
1930-03-27,1300.0
1930-03-28,1250.0
1930-03-29,1200.0
1930-03-30,1180.0
1930-03-31,1300.0
1930-04-01,1360.0
1930-04-02,1480.0
1930-04-03,1570.0
1930-04-04,1650.0
1930-04-05,1780.0
1930-04-06,2100.0
1930-04-07,2660.0
1930-04-08,3420.0
1930-04-09,3910.0
1930-04-10,4040.0
1930-04-11,5010.0
1930-04-12,4720.0
1930-04-13,4720.0
1930-04-14,5010.0
1930-04-15,5010.0
1930-04-16,4860.0
1930-04-17,4300.0
1930-04-18,2970.0
1930-04-19,2660.0
1930-04-20,2860.0
1930-04-21,3300.0
1930-04-22,4040.0
1930-04-23,4580.0
1930-04-24,4440.0
1930-04-25,4580.0
1930-04-26,5310.0
1930-04-27,4580.0
1930-04-28,4580.0
1930-04-29,4300.0
1930-04-30,4040.0
1930-05-01,3910.0
1930-05-02,3910.0
1930-05-03,3910.0
1930-05-04,4440.0
1930-05-05,3780.0
1930-05-06,3190.0
1930-05-07,2660.0
1930-05-08,2350.0
1930-05-09,2030.0
1930-05-10,1720.0
1930-05-11,1670.0
1930-05-12,1610.0
1930-05-13,1410.0
1930-05-14,1350.0
1930-05-15,1390.0
1930-05-16,1830.0
1930-05-17,1940.0
1930-05-18,1860.0
1930-05-19,1770.0
1930-05-20,1710.0
1930-05-21,1840.0
1930-05-22,2460.0
1930-05-23,2970.0
1930-05-24,2100.0
1930-05-25,2370.0
1930-05-26,2560.0
1930-05-27,2660.0
1930-05-28,2560.0
1930-05-29,2770.0
1930-05-30,2980.0
1930-05-31,3190.0
1930-06-01,4200.0
1930-06-02,4300.0
1930-06-03,3550.0
1930-06-04,2800.0
1930-06-05,2020.0
1930-06-06,1920.0
1930-06-07,1940.0
1930-06-08,1970.0
1930-06-09,2020.0
1930-06-10,1990.0
1930-06-11,2020.0
1930-06-12,2000.0
1930-06-13,1980.0
1930-06-14,1970.0
1930-06-15,1950.0
1930-06-16,2200.0
1930-06-17,1720.0
1930-06-18,1600.0
1930-06-19,1520.0
1930-06-20,1450.0
1930-06-21,1300.0
1930-06-22,1200.0
1930-06-23,1150.0
1930-06-24,1020.0
1930-06-25,880.0
1930-06-26,742.0
1930-06-27,588.0
1930-06-28,482.0
1930-06-29,407.0
1930-06-30,360.0
1930-07-01,
1930-07-02,
1930-07-03,
1930-07-04,
1930-07-05,
1930-07-06,
1930-07-07,
1930-07-08,
1930-07-09,
1930-07-10,
1930-07-11,
1930-07-12,
1930-07-13,
1930-07-14,
1930-07-15,
1930-07-16,
1930-07-17,
1930-07-18,
1930-07-19,
1930-07-20,
1930-07-21,
1930-07-22,
1930-07-23,
1930-07-24,
1930-07-25,
1930-07-26,
1930-07-27,
1930-07-28,
1930-07-29,
1930-07-30,
1930-07-31,
1930-08-01,
1930-08-02,
1930-08-03,
1930-08-04,
1930-08-05,
1930-08-06,
1930-08-07,
1930-08-08,
1930-08-09,
1930-08-10,
1930-08-11,
1930-08-12,
1930-08-13,
1930-08-14,
1930-08-15,
1930-08-16,
1930-08-17,
1930-08-18,
1930-08-19,
1930-08-20,
1930-08-21,
1930-08-22,
1930-08-23,
1930-08-24,
1930-08-25,
1930-08-26,
1930-08-27,
1930-08-28,
1930-08-29,
1930-08-30,
1930-08-31,
1930-09-01,
1930-09-02,
1930-09-03,
1930-09-04,
1930-09-05,
1930-09-06,
1930-09-07,
1930-09-08,
1930-09-09,
1930-09-10,
1930-09-11,
1930-09-12,
1930-09-13,
1930-09-14,
1930-09-15,
1930-09-16,
1930-09-17,
1930-09-18,
1930-09-19,
1930-09-20,
1930-09-21,
1930-09-22,
1930-09-23,
1930-09-24,
1930-09-25,
1930-09-26,
1930-09-27,
1930-09-28,
1930-09-29,
1930-09-30,
1930-10-01,800.0
1930-10-02,720.0
1930-10-03,620.0
1930-10-04,580.0
1930-10-05,550.0
1930-10-06,540.0
1930-10-07,540.0
1930-10-08,536.0
1930-10-09,506.0
1930-10-10,512.0
1930-10-11,940.0
1930-10-12,1550.0
1930-10-13,700.0
1930-10-14,620.0
1930-10-15,616.0
1930-10-16,609.0
1930-10-17,646.0
1930-10-18,646.0
1930-10-19,602.0
1930-10-20,542.0
1930-10-21,536.0
1930-10-22,602.0
1930-10-23,602.0
1930-10-24,609.0
1930-10-25,630.0
1930-10-26,588.0
1930-10-27,548.0
1930-10-28,506.0
1930-10-29,494.0
1930-10-30,480.0
1930-10-31,470.0
1930-11-01,460.0
1930-11-02,460.0
1930-11-03,460.0
1930-11-04,480.0
1930-11-05,500.0
1930-11-06,520.0
1930-11-07,560.0
1930-11-08,580.0
1930-11-09,600.0
1930-11-10,620.0
1930-11-11,620.0
1930-11-12,620.0
1930-11-13,620.0
1930-11-14,600.0
1930-11-15,620.0
1930-11-16,600.0
1930-11-17,580.0
1930-11-18,540.0
1930-11-19,680.0
1930-11-20,740.0
1930-11-21,670.0
1930-11-22,660.0
1930-11-23,540.0
1930-11-24,450.0
1930-11-25,550.0
1930-11-26,590.0
1930-11-27,560.0
1930-11-28,600.0
1930-11-29,600.0
1930-11-30,580.0
1930-12-01,600.0
1930-12-02,620.0
1930-12-03,630.0
1930-12-04,700.0
1930-12-05,730.0
1930-12-06,730.0
1930-12-07,730.0
1930-12-08,710.0
1930-12-09,690.0
1930-12-10,720.0
1930-12-11,700.0
1930-12-12,680.0
1930-12-13,670.0
1930-12-14,660.0
1930-12-15,630.0
1930-12-16,600.0
1930-12-17,550.0
1930-12-18,530.0
1930-12-19,530.0
1930-12-20,520.0
1930-12-21,510.0
1930-12-22,500.0
1930-12-23,490.0